This is the latest recevied weather packets stored in our database for station/object XE2RCS-1. If no packets are shown the sender has not sent any weather packets the latest 10 day(s).
| Time | Temp. | Humidity | Pressure | Rain* | Wind** | Luminosity | Snow |
|---|---|---|---|---|---|---|---|
| 1788580148 | 18.33° C | 68% | 1016 hPa | 0 mm | - | - | - |
| 1788579547 | 19.44° C | 68% | 1017 hPa | 0 mm | - | - | - |
| 1788578946 | 20.56° C | 68% | 1018 hPa | 0 mm | - | - | - |
| 1788578346 | 21.67° C | 68% | 1018 hPa | 0 mm | - | - | - |
| 1788577745 | 16.11° C | 83% | 1017 hPa | 0 mm | - | - | - |
| 1788577144 | 17.22° C | 83% | 1017 hPa | 0 mm | - | - | - |
| 1788576544 | 18.33° C | 83% | 1017 hPa | 0 mm | - | - | - |
| 1788575943 | 19.44° C | 83% | 1017 hPa | 0 mm | - | - | - |
| 1788575343 | 15° C | 73% | 1016 hPa | 0 mm | - | - | - |
| 1788574742 | 16.11° C | 73% | 1016 hPa | 0 mm | - | - | - |
| 1788574142 | 17.22° C | 73% | 1016 hPa | 0 mm | - | - | - |
| 1788573541 | 18.33° C | 73% | 1017 hPa | 0 mm | - | - | - |
| 1788572940 | 19.44° C | 73% | 1017 hPa | 0 mm | - | - | - |
| 1788572340 | 20.56° C | 73% | 1017 hPa | 0 mm | - | - | - |
| 1788571739 | 20.56° C | 72% | 1016 hPa | 0 mm | - | - | - |
| 1788571138 | 20.56° C | 71% | 1017 hPa | 0 mm | - | - | - |
| 1788570538 | 20.56° C | 72% | 1015 hPa | 0 mm | - | - | - |
| 1788569937 | 20.56° C | 73% | 1015 hPa | 0 mm | - | - | - |
| 1788569336 | 20.56° C | 73% | 1015 hPa | 0 mm | - | - | - |
| 1788568736 | 20.56° C | 73% | 1015 hPa | 0 mm | - | - | - |
| 1788568135 | 19.44° C | 94% | 1011 hPa | 0 mm | - | - | - |
| 1788567534 | 19.44° C | 94% | 1011 hPa | 0 mm | - | - | - |
| 1788566934 | 21.67° C | 58% | 1011 hPa | 0 mm | - | - | - |
| 1788566333 | 22.78° C | 58% | 1011 hPa | 0 mm | - | - | - |
| 1788565732 | 23.89° C | 58% | 1011 hPa | 0 mm | - | - | - |
* Rain latest hour (hover to see other rain measurements)
** Current wind speed in m/s (hover to see current wind gust speed)